Location: Perryvale
(54.4667°N, 113.3833°W)
Time: 19:58:35
(UTC+00:00)

SR - Pass Details

Date: 20 May 2024
Orbit: 580 x 858 km, 66.7° (Epoch: 19 June)

Event Time Altitude Azimuth Distance (km) Brightness Sun altitude
Rises 07:29:52 0° 310° (NW) 3,003 ? -15.4°
Reaches altitude 10° 07:32:44 10° 327° (NNW) 2,040 ? -15.4°
Maximum altitude 07:36:14 21° 17° (NNE) 1,396 ? -15.4°
Drops below altitude 10° 07:39:36 10° 67° (ENE) 1,945 ? -15.4°
Sets 07:42:15 0° 84° (E) 2,822 ? -15.4°
